FW6109 Weather Reports


time (UTC)temp
F
wind
direction
speed
knots
gust
knots
rain 1hr
in
rain 24hr
in
rain mn
in
humidity
%
barometer
mb
20260507045017 54 0.0 0.0 0.00 0.00 0.00 90 1018.0
20260507044018 54 0.0 0.0 0.00 0.00 0.00 90 1018.0
20260507043029 54 0.0 0.0 0.00 0.00 0.00 90 1017.9
20260507042019 55 0.0 0.0 0.00 0.00 0.00 90 1017.8
20260507041038 55 0.0 0.0 0.00 0.00 0.00 89 1017.9
20260507040018 0 0.0 0.0 0.00 0.00 0.00
20260507035019 55 0.0 0.0 0.00 0.00 0.00 88 1018.1
20260507034037 55 298 0.0 0.0 0.00 0.00 0.00 88 1018.1
20260507033016 55 342 0.0 1.7 0.00 0.00 0.00 87 1018.2
20260507032016 56 313 0.0 0.9 0.00 0.00 0.00 87 1018.3
20260507031017 56 359 0.9 2.6 0.00 0.00 0.00 87 1018.4
20260507030016 56 0.0 0.0 0.00 0.00 0.00 87 1018.4
20260507025016 0 0.0 0.0 0.00 0.00 0.00
20260507024016 0 0.0 0.0 0.00 0.00 0.00
20260507023016 0 0.0 0.0 0.00 0.00 0.00
20260507022017 57 296 0.0 0.9 0.00 0.00 0.00 84 1018.3
20260507021017 0 0.0 0.0 0.00 0.00 0.00
20260507020017 57 271 0.0 0.9 0.00 0.00 0.00 84 1018.5
20260507015038 57 244 0.0 1.7 0.00 0.00 0.00 84 1018.6
20260507014018 57 350 0.0 1.7 0.00 0.00 0.00 84 1018.4
20260507013018 57 159 0.0 1.7 0.00 0.00 0.00 84 1018.4
20260507012018 57 206 0.0 0.9 0.00 0.00 0.00 83 1018.2
20260507011020 57 148 0.0 1.7 0.00 0.00 0.00 81 1018.3
20260507010019 0 0.0 0.0 0.00 0.00 0.00
20260507005017 0 0.0 0.0 0.00 0.00 0.00
20260507004016 58 209 0.0 0.9 0.00 0.00 0.00 80 1019.3
20260507003016 58 146 0.0 0.9 0.00 0.00 0.00 80 1019.3
20260507002056 58 166 0.9 2.6 0.00 0.00 0.00 80 1019.5
20260507001058 59 150 0.0 2.6 0.00 0.00 0.00 79 1019.6
20260507000018 59 140 0.0 2.6 0.00 0.00 0.00 80 1019.8
20260506235036 0 0.0 0.0 0.00 0.00 0.00
20260506234018 0 0.0 0.0 0.00 0.00 0.00
20260506233017 0 0.0 0.0 0.00 0.00 0.00
20260506232017 0 0.0 0.0 0.00 0.00 0.00
20260506231017 0 0.0 0.0 0.00 0.00 0.00
20260506230017 0 0.0 0.0 0.00 0.00 0.00
20260506225018 0 0.0 0.0 0.00 0.00 0.00
20260506224017 59 248 0.0 0.9 0.00 0.00 0.00 79 1020.2
20260506223018 59 114 0.9 2.6 0.00 0.00 0.00 79 1020.3
20260506222018 58 160 0.9 2.6 0.00 0.00 0.00 80 1020.1
20260506221016 58 193 0.0 2.6 0.00 0.00 0.00 80 1019.8
20260506220017 58 176 0.0 1.7 0.00 0.00 0.00 81 1019.7
20260506215015 58 187 0.0 0.9 0.00 0.00 0.00 81 1019.8
20260506214016 58 148 0.0 1.7 0.00 0.00 0.00 81 1019.8
20260506213016 58 160 0.9 1.7 0.00 0.00 0.00 83 1019.9
20260506212036 59 164 0.0 1.7 0.00 0.00 0.00 83 1020.2
20260506211017 58 156 0.0 2.6 0.00 0.00 0.00 85 1020.5
20260506210037 58 137 0.0 0.9 0.00 0.00 0.00 86 1020.3
20260506205016 0 0.0 0.0 0.00 0.00 0.00
20260506204016 0 0.0 0.0 0.00 0.00 0.00
20260506203017 0 0.0 0.0 0.00 0.00 0.00
20260506202018 0 0.0 0.0 0.00 0.00 0.00
20260506201018 0 0.0 0.0 0.00 0.00 0.00
20260506200017 0 0.0 0.0 0.00 0.00 0.00
20260506195017 56 119 0.0 2.6 0.00 0.00 0.00 91 1020.1
20260506194018 56 162 0.0 1.7 0.00 0.00 0.00 91 1020.0
20260506193018 55 129 0.0 0.9 0.00 0.00 0.00 93 1019.8
20260506192019 55 146 0.0 1.7 0.00 0.00 0.00 93 1019.9
20260506191021 54 179 0.0 1.7 0.00 0.00 0.00 94 1019.5
20260506190020 54 150 0.0 0.9 0.00 0.00 0.00 94 1019.2
20260506185016 54 171 0.0 1.7 0.00 0.00 0.00 94 1019.2
20260506184018 54 162 0.0 1.7 0.00 0.00 0.00 94 1019.2
20260506183016 54 180 0.0 1.7 0.00 0.00 0.00 94 1019.2
20260506182016 54 161 0.0 1.7 0.00 0.00 0.00 94 1019.2
20260506181016 54 143 0.0 1.7 0.00 0.00 0.00 93 1019.4
20260506180038 54 175 0.0 3.5 0.00 0.00 0.00 94 1019.4
20260506175016 0 0.0 0.0 0.00 0.00 0.00
20260506174017 54 207 0.0 1.7 0.00 0.00 0.00 93 1019.2
20260506173018 55 128 0.0 1.7 0.00 0.00 0.00 93 1019.2
20260506172017 0 0.0 0.0 0.00 0.00 0.00
20260506171017 0 0.0 0.0 0.00 0.00 0.00
20260506170017 0 0.0 0.0 0.00 0.00 0.00
20260506165018 0 0.0 0.0 0.00 0.00 0.00
20260506164018 0 0.0 0.0 0.00 0.00 0.00
20260506163039 0 0.0 0.0 0.00 0.00 0.00
20260506162018 54 199 0.0 1.7 0.00 0.00 0.00 93 1018.9
20260506161039 54 147 0.0 1.7 0.00 0.00 0.00 93 1019.0
20260506160019 54 152 0.0 1.7 0.00 0.00 0.00 94 1019.1
20260506155036 54 179 0.0 1.7 0.00 0.00 0.00 94 1018.9
20260506154036 54 171 0.0 1.7 0.00 0.00 0.00 94 1018.9
20260506153016 54 177 0.0 1.7 0.00 0.00 0.00 94 1019.0
20260506152016 54 169 0.9 2.6 0.00 0.00 0.00 94 1018.9
20260506151017 54 183 0.0 2.6 0.00 0.00 0.00 94 1018.9
20260506150017 54 158 0.0 1.7 0.00 0.00 0.00 94 1018.6
20260506145017 0 0.0 0.0 0.00 0.00 0.00
20260506144017 54 147 0.0 1.7 0.00 0.00 0.00 94 1018.3
20260506143017 53 161 0.0 0.9 0.00 0.00 0.00 94 1018.2
20260506142018 53 148 0.0 1.7 0.00 0.00 0.00 94 1018.1
20260506141017 53 121 0.0 0.9 0.00 0.00 0.00 94 1017.9
20260506140018 53 150 0.0 1.7 0.00 0.00 0.00 94 1017.9
20260506135018 53 0.0 0.0 0.00 0.00 0.00 94 1017.8
20260506134017 53 210 0.0 0.9 0.00 0.00 0.00 94 1017.8
20260506133018 0 0.0 0.0 0.00 0.00 0.00
20260506132018 53 157 0.0 1.7 0.00 0.00 0.00 94 1017.7
20260506131018 53 145 0.0 1.7 0.00 0.00 0.00 94 1017.5
20260506130018 53 36 0.0 0.0 0.00 0.00 0.00 94 1017.5
20260506125016 53 132 0.0 1.7 0.00 0.00 0.00 95 1017.3
20260506124035 53 0.0 0.0 0.00 0.00 0.00 94 1017.3
20260506123018 53 333 0.0 0.9 0.00 0.00 0.00 94 1017.3
20260506122017 54 187 0.0 0.9 0.00 0.00 0.00 94 1017.2
20260506121036 53 0.0 0.0 0.00 0.00 0.00 94 1017.2
20260506120018 0 0.0 0.0 0.00 0.00 0.00
20260506115036 53 168 0.0 0.9 0.00 0.00 0.00 94 1016.9
20260506114016 0 0.0 0.0 0.00 0.00 0.00
20260506113017 0 0.0 0.0 0.00 0.00 0.00
20260506112018 53 7 0.0 1.7 0.00 0.00 0.00 94 1016.8
20260506111018 53 155 0.0 2.6 0.00 0.00 0.00 94 1016.8
20260506110018 54 194 0.9 3.5 0.00 0.00 0.00 94 1016.6
20260506105017 54 185 0.0 2.6 0.00 0.00 0.00 95 1016.5
20260506104018 54 150 0.0 1.7 0.00 0.00 0.00 95 1016.4
20260506103018 53 160 0.9 3.5 0.00 0.00 0.00 95 1016.1
20260506102018 53 174 0.0 1.7 0.00 0.00 0.00 97 1015.7
20260506101018 52 198 0.0 0.9 0.00 0.00 0.00 97 1015.3
20260506100016 52 209 0.0 0.9 0.00 0.00 0.00 96 1014.8
20260506095054 52 130 0.0 0.9 0.00 0.00 0.00 95 1014.4
20260506094016 52 0.0 0.0 0.00 0.00 0.00 95 1014.2
20260506093016 52 146 0.0 1.7 0.00 0.00 0.00 95 1014.1
20260506092016 52 193 0.0 1.7 0.00 0.00 0.00 95 1014.0
20260506091036 52 0.0 0.0 0.00 0.00 0.00 94 1014.0
20260506090017 52 0.0 0.0 0.00 0.00 0.00 94 1014.0
20260506085016 0 0.0 0.0 0.00 0.00 0.00
20260506084017 0 0.0 0.0 0.00 0.00 0.00
20260506083018 0 0.0 0.0 0.00 0.00 0.00
20260506082017 0 0.0 0.0 0.00 0.00 0.00
20260506081019 0 0.0 0.0 0.00 0.00 0.00
20260506073018 54 201 0.0 0.9 0.00 0.00 0.00 94 1013.5
20260506072018 54 150 0.0 0.9 0.00 0.00 0.00 93 1013.4
20260506071018 54 0.0 0.0 0.00 0.00 0.00 93 1013.5
20260506062017 55 0.0 0.0 0.00 0.00 0.00 90 1012.8
20260506061017 55 263 0.0 0.9 0.00 0.00 0.00 88 1012.8
20260506051017 0 0.0 0.0 0.00 0.00 0.00